#Datum;Uhrzeit;WR;Pac;DaySum;Status;WR;Pac;DaySum;Status;Pdc1;Udc;Temp;WR;Pac;DaySum;Status;Pdc1;Udc;Temp;WR;Pac;DaySum;Status;Pdc1;Udc;Temp;WR;Pac;DaySum;Status;Pdc1;Pdc2;Udc1;Udc2;Temp;WR;Pac;DaySum;Status;Pdc1;Pdc2;Udc1;Udc2;Temp;WR;Pac;DaySum;Status;Pdc1;Udc;Temp;WR;Pac;DaySum;Status;Pdc1;Udc;Temp;WR;Pac;DaySum;Status;Pdc1;Udc;Temp
17.12.20;23:55:00;1;371;12218;0;2;0;1356;0;0;0;0;3;0;765;0;0;0;0;4;0;1058;0;0;0;0;5;0;0;0;0;0;0;0;0;6;0;1345;0;0;0;0;0;0;7;0;1291;0;0;0;0;8;0;1306;0;0;0;0;9;0;656;0;0;0;0
17.12.20;23:50:00;1;374;12187;0;2;0;1356;0;0;0;0;3;0;765;0;0;0;0;4;0;1058;0;0;0;0;5;0;0;0;0;0;0;0;0;6;0;1345;0;0;0;0;0;0;7;0;1291;0;0;0;0;8;0;1306;0;0;0;0;9;0;656;0;0;0;0
17.12.20;23:45:00;1;376;12155;0;2;0;1356;0;0;0;0;3;0;765;0;0;0;0;4;0;1058;0;0;0;0;5;0;0;0;0;0;0;0;0;6;0;1345;0;0;0;0;0;0;7;0;1291;0;0;0;0;8;0;1306;0;0;0;0;9;0;656;0;0;0;0
17.12.20;23:40:00;1;365;12123;0;2;0;1356;0;0;0;0;3;0;765;0;0;0;0;4;0;1058;0;0;0;0;5;0;0;0;0;0;0;0;0;6;0;1345;0;0;0;0;0;0;7;0;1291;0;0;0;0;8;0;1306;0;0;0;0;9;0;656;0;0;0;0
17.12.20;23:35:00;1;351;12094;0;2;0;1356;0;0;0;0;3;0;765;0;0;0;0;4;0;1058;0;0;0;0;5;0;0;0;0;0;0;0;0;6;0;1345;0;0;0;0;0;0;7;0;1291;0;0;0;0;8;0;1306;0;0;0;0;9;0;656;0;0;0;0
17.12.20;23:30:00;1;349;12065;0;2;0;1356;0;0;0;0;3;0;765;0;0;0;0;4;0;1058;0;0;0;0;5;0;0;0;0;0;0;0;0;6;0;1345;0;0;0;0;0;0;7;0;1291;0;0;0;0;8;0;1306;0;0;0;0;9;0;656;0;0;0;0
17.12.20;23:25:00;1;297;12036;0;2;0;1356;0;0;0;0;3;0;765;0;0;0;0;4;0;1058;0;0;0;0;5;0;0;0;0;0;0;0;0;6;0;1345;0;0;0;0;0;0;7;0;1291;0;0;0;0;8;0;1306;0;0;0;0;9;0;656;0;0;0;0
17.12.20;23:20:00;1;310;12010;0;2;0;1356;0;0;0;0;3;0;765;0;0;0;0;4;0;1058;0;0;0;0;5;0;0;0;0;0;0;0;0;6;0;1345;0;0;0;0;0;0;7;0;1291;0;0;0;0;8;0;1306;0;0;0;0;9;0;656;0;0;0;0
17.12.20;23:15:00;1;334;11984;0;2;0;1356;0;0;0;0;3;0;765;0;0;0;0;4;0;1058;0;0;0;0;5;0;0;0;0;0;0;0;0;6;0;1345;0;0;0;0;0;0;7;0;1291;0;0;0;0;8;0;1306;0;0;0;0;9;0;656;0;0;0;0
17.12.20;23:10:00;1;291;11957;0;2;0;1356;0;0;0;0;3;0;765;0;0;0;0;4;0;1058;0;0;0;0;5;0;0;0;0;0;0;0;0;6;0;1345;0;0;0;0;0;0;7;0;1291;0;0;0;0;8;0;1306;0;0;0;0;9;0;656;0;0;0;0
17.12.20;23:05:00;1;318;11933;0;2;0;1356;0;0;0;0;3;0;765;0;0;0;0;4;0;1058;0;0;0;0;5;0;0;0;0;0;0;0;0;6;0;1345;0;0;0;0;0;0;7;0;1291;0;0;0;0;8;0;1306;0;0;0;0;9;0;656;0;0;0;0
17.12.20;23:00:00;1;336;11906;0;2;0;1356;0;0;0;0;3;0;765;0;0;0;0;4;0;1058;0;0;0;0;5;0;0;0;0;0;0;0;0;6;0;1345;0;0;0;0;0;0;7;0;1291;0;0;0;0;8;0;1306;0;0;0;0;9;0;656;0;0;0;0
17.12.20;22:55:00;1;744;11878;0;2;0;1356;0;0;0;0;3;0;765;0;0;0;0;4;0;1058;0;0;0;0;5;0;0;0;0;0;0;0;0;6;0;1345;2;0;0;0;0;0;7;0;1291;0;0;0;0;8;0;1306;0;0;0;0;9;0;656;0;0;0;0
17.12.20;22:50:00;1;385;11819;0;2;0;1356;0;0;0;0;3;0;765;0;0;0;0;4;0;1058;0;0;0;0;5;0;0;0;0;0;0;0;0;6;0;1345;2;0;0;0;0;0;7;0;1291;0;0;0;0;8;0;1306;0;0;0;0;9;0;656;0;0;0;0
17.12.20;22:45:00;1;318;11787;0;2;0;1356;0;0;0;0;3;0;765;0;0;0;0;4;0;1058;0;0;0;0;5;0;0;0;0;0;0;0;0;6;0;1345;2;0;0;0;0;0;7;0;1291;0;0;0;0;8;0;1306;0;0;0;0;9;0;656;0;0;0;0
17.12.20;22:40:00;1;315;11759;0;2;0;1356;0;0;0;0;3;0;765;0;0;0;0;4;0;1058;0;0;0;0;5;0;0;0;0;0;0;0;0;6;0;1345;2;0;0;0;0;0;7;0;1291;0;0;0;0;8;0;1306;0;0;0;0;9;0;656;0;0;0;0
17.12.20;22:35:00;1;324;11732;0;2;0;1356;0;0;0;0;3;0;765;0;0;0;0;4;0;1058;0;0;0;0;5;0;0;0;0;0;0;0;0;6;0;1345;2;0;0;0;0;0;7;0;1291;0;0;0;0;8;0;1306;0;0;0;0;9;0;656;0;0;0;0
17.12.20;22:30:00;1;336;11705;0;2;0;1356;0;0;0;0;3;0;765;0;0;0;0;4;0;1058;0;0;0;0;5;0;0;0;0;0;0;0;0;6;0;1345;2;0;0;0;0;0;7;0;1291;0;0;0;0;8;0;1306;0;0;0;0;9;0;656;0;0;0;0
17.12.20;22:25:00;1;391;11677;0;2;0;1356;0;0;0;0;3;0;765;0;0;0;0;4;0;1058;0;0;0;0;5;0;0;0;0;0;0;0;0;6;0;1345;2;0;0;0;0;0;7;0;1291;0;0;0;0;8;0;1306;0;0;0;0;9;0;656;0;0;0;0
17.12.20;22:20:00;1;500;11645;0;2;0;1356;0;0;0;0;3;0;765;0;0;0;0;4;0;1058;0;0;0;0;5;0;0;0;0;0;0;0;0;6;0;1345;2;0;0;0;0;0;7;0;1291;0;0;0;0;8;0;1306;0;0;0;0;9;0;656;0;0;0;0
17.12.20;22:15:00;1;457;11603;0;2;0;1356;0;0;0;0;3;0;765;0;0;0;0;4;0;1058;0;0;0;0;5;0;0;0;0;0;0;0;0;6;0;1345;2;0;0;0;0;0;7;0;1291;0;0;0;0;8;0;1306;0;0;0;0;9;0;656;0;0;0;0
17.12.20;22:10:00;1;510;11565;0;2;0;1356;0;0;0;0;3;0;765;0;0;0;0;4;0;1058;0;0;0;0;5;0;0;0;0;0;0;0;0;6;0;1345;2;0;0;0;0;0;7;0;1291;0;0;0;0;8;0;1306;0;0;0;0;9;0;656;0;0;0;0
17.12.20;22:05:00;1;515;11521;0;2;0;1356;0;0;0;0;3;0;765;0;0;0;0;4;0;1058;0;0;0;0;5;0;0;0;0;0;0;0;0;6;0;1345;2;0;0;0;0;0;7;0;1291;0;0;0;0;8;0;1306;0;0;0;0;9;0;656;0;0;0;0
17.12.20;22:00:00;1;503;11478;0;2;0;1356;0;0;0;0;3;0;765;0;0;0;0;4;0;1058;0;0;0;0;5;0;0;0;0;0;0;0;0;6;0;1345;2;0;0;0;0;0;7;0;1291;0;0;0;0;8;0;1306;0;0;0;0;9;0;656;0;0;0;0
17.12.20;21:55:00;1;429;11435;0;2;0;1356;0;0;0;0;3;0;765;0;0;0;0;4;0;1058;0;0;0;0;5;0;0;0;0;0;0;0;0;6;0;1345;2;0;0;0;0;0;7;0;1291;0;0;0;0;8;0;1306;0;0;0;0;9;0;656;0;0;0;0
17.12.20;21:50:00;1;454;11398;0;2;0;1356;0;0;0;0;3;0;765;0;0;0;0;4;0;1058;0;0;0;0;5;0;0;0;0;0;0;0;0;6;0;1345;2;0;0;0;0;0;7;0;1291;0;0;0;0;8;0;1306;0;0;0;0;9;0;656;0;0;0;0
17.12.20;21:45:00;1;419;11359;0;2;0;1356;0;0;0;0;3;0;765;0;0;0;0;4;0;1058;0;0;0;0;5;0;0;0;0;0;0;0;0;6;0;1345;2;0;0;0;0;0;7;0;1291;0;0;0;0;8;0;1306;0;0;0;0;9;0;656;0;0;0;0
17.12.20;21:40:00;1;416;11324;0;2;0;1356;0;0;0;0;3;0;765;0;0;0;0;4;0;1058;0;0;0;0;5;0;0;0;0;0;0;0;0;6;0;1345;2;0;0;0;0;0;7;0;1291;0;0;0;0;8;0;1306;0;0;0;0;9;0;656;0;0;0;0
17.12.20;21:35:00;1;423;11290;0;2;0;1356;0;0;0;0;3;0;765;0;0;0;0;4;0;1058;0;0;0;0;5;0;0;0;0;0;0;0;0;6;0;1345;2;0;0;0;0;0;7;0;1291;0;0;0;0;8;0;1306;0;0;0;0;9;0;656;0;0;0;0
17.12.20;21:30:00;1;425;11255;0;2;0;1356;0;0;0;0;3;0;765;0;0;0;0;4;0;1058;0;0;0;0;5;0;0;0;0;0;0;0;0;6;0;1345;2;0;0;0;0;0;7;0;1291;0;0;0;0;8;0;1306;0;0;0;0;9;0;656;0;0;0;0
17.12.20;21:25:00;1;550;11219;0;2;0;1356;0;0;0;0;3;0;765;0;0;0;0;4;0;1058;0;0;0;0;5;0;0;0;0;0;0;0;0;6;0;1345;2;0;0;0;0;0;7;0;1291;0;0;0;0;8;0;1306;0;0;0;0;9;0;656;0;0;0;0
17.12.20;21:20:00;1;498;11176;0;2;0;1356;0;0;0;0;3;0;765;0;0;0;0;4;0;1058;0;0;0;0;5;0;0;0;0;0;0;0;0;6;0;1345;2;0;0;0;0;0;7;0;1291;0;0;0;0;8;0;1306;0;0;0;0;9;0;656;0;0;0;0
17.12.20;21:15:00;1;536;11133;0;2;0;1356;0;0;0;0;3;0;765;0;0;0;0;4;0;1058;0;0;0;0;5;0;0;0;0;0;0;0;0;6;0;1345;2;0;0;0;0;0;7;0;1291;0;0;0;0;8;0;1306;0;0;0;0;9;0;656;0;0;0;0
17.12.20;21:10:00;1;478;11089;0;2;0;1356;0;0;0;0;3;0;765;0;0;0;0;4;0;1058;0;0;0;0;5;0;0;0;0;0;0;0;0;6;0;1345;2;0;0;0;0;0;7;0;1291;0;0;0;0;8;0;1306;0;0;0;0;9;0;656;0;0;0;0
17.12.20;21:05:00;1;591;11049;0;2;0;1356;0;0;0;0;3;0;765;0;0;0;0;4;0;1058;0;0;0;0;5;0;0;0;0;0;0;0;0;6;0;1345;2;0;0;0;0;0;7;0;1291;0;0;0;0;8;0;1306;0;0;0;0;9;0;656;0;0;0;0
17.12.20;21:00:00;1;450;11001;0;2;0;1356;0;0;0;0;3;0;765;0;0;0;0;4;0;1058;0;0;0;0;5;0;0;0;0;0;0;0;0;6;0;1345;2;0;0;0;0;0;7;0;1291;0;0;0;0;8;0;1306;0;0;0;0;9;0;656;0;0;0;0
17.12.20;20:55:00;1;477;10962;0;2;0;1356;0;0;0;0;3;0;765;0;0;0;0;4;0;1058;0;0;0;0;5;0;0;0;0;0;0;0;0;6;0;1345;2;0;0;0;0;0;7;0;1291;0;0;0;0;8;0;1306;0;0;0;0;9;0;656;0;0;0;0
17.12.20;20:50:00;1;414;10923;0;2;0;1356;0;0;0;0;3;0;765;0;0;0;0;4;0;1058;0;0;0;0;5;0;0;0;0;0;0;0;0;6;0;1345;2;0;0;0;0;0;7;0;1291;0;0;0;0;8;0;1306;0;0;0;0;9;0;656;0;0;0;0
17.12.20;20:45:00;1;365;10888;0;2;0;1356;0;0;0;0;3;0;765;0;0;0;0;4;0;1058;0;0;0;0;5;0;0;0;0;0;0;0;0;6;0;1345;2;0;0;0;0;0;7;0;1291;0;0;0;0;8;0;1306;0;0;0;0;9;0;656;0;0;0;0
17.12.20;20:40:00;1;364;10858;0;2;0;1356;0;0;0;0;3;0;765;0;0;0;0;4;0;1058;0;0;0;0;5;0;0;0;0;0;0;0;0;6;0;1345;2;0;0;0;0;0;7;0;1291;0;0;0;0;8;0;1306;0;0;0;0;9;0;656;0;0;0;0
17.12.20;20:35:00;1;364;10827;0;2;0;1356;0;0;0;0;3;0;765;0;0;0;0;4;0;1058;0;0;0;0;5;0;0;0;0;0;0;0;0;6;0;1345;2;0;0;0;0;0;7;0;1291;0;0;0;0;8;0;1306;0;0;0;0;9;0;656;0;0;0;0
17.12.20;20:30:00;1;366;10797;0;2;0;1356;0;0;0;0;3;0;765;0;0;0;0;4;0;1058;0;0;0;0;5;0;0;0;0;0;0;0;0;6;0;1345;2;0;0;0;0;0;7;0;1291;0;0;0;0;8;0;1306;0;0;0;0;9;0;656;0;0;0;0
17.12.20;20:25:00;1;454;10766;0;2;0;1356;0;0;0;0;3;0;765;0;0;0;0;4;0;1058;0;0;0;0;5;0;0;0;0;0;0;0;0;6;0;1345;2;0;0;0;0;0;7;0;1291;0;0;0;0;8;0;1306;0;0;0;0;9;0;656;0;0;0;0
17.12.20;20:20:00;1;594;10730;0;2;0;1356;0;0;0;0;3;0;765;0;0;0;0;4;0;1058;0;0;0;0;5;0;0;0;0;0;0;0;0;6;0;1345;2;0;0;0;0;0;7;0;1291;0;0;0;0;8;0;1306;0;0;0;0;9;0;656;0;0;0;0
17.12.20;20:15:00;1;962;10683;0;2;0;1356;0;0;0;0;3;0;765;0;0;0;0;4;0;1058;0;0;0;0;5;0;0;0;0;0;0;0;0;6;0;1345;2;0;0;0;0;0;7;0;1291;0;0;0;0;8;0;1306;0;0;0;0;9;0;656;0;0;0;0
17.12.20;20:10:00;1;1409;10605;0;2;0;1356;0;0;0;0;3;0;765;0;0;0;0;4;0;1058;0;0;0;0;5;0;0;0;0;0;0;0;0;6;0;1345;2;0;0;0;0;0;7;0;1291;0;0;0;0;8;0;1306;0;0;0;0;9;0;656;0;0;0;0
17.12.20;20:05:00;1;692;10488;0;2;0;1356;0;0;0;0;3;0;765;0;0;0;0;4;0;1058;0;0;0;0;5;0;0;0;0;0;0;0;0;6;0;1345;2;0;0;0;0;0;7;0;1291;0;0;0;0;8;0;1306;0;0;0;0;9;0;656;0;0;0;0
17.12.20;20:00:00;1;338;10401;0;2;0;1356;0;0;0;0;3;0;765;0;0;0;0;4;0;1058;0;0;0;0;5;0;0;0;0;0;0;0;0;6;0;1345;2;0;0;0;0;0;7;0;1291;0;0;0;0;8;0;1306;0;0;0;0;9;0;656;0;0;0;0
17.12.20;19:55:00;1;388;10373;0;2;0;1356;0;0;0;0;3;0;765;0;0;0;0;4;0;1058;0;0;0;0;5;0;0;0;0;0;0;0;0;6;0;1345;2;0;0;0;0;0;7;0;1291;0;0;0;0;8;0;1306;0;0;0;0;9;0;656;0;0;0;0
17.12.20;19:50:00;1;328;10340;0;2;0;1356;0;0;0;0;3;0;765;0;0;0;0;4;0;1058;0;0;0;0;5;0;0;0;0;0;0;0;0;6;0;1345;2;0;0;0;0;0;7;0;1291;0;0;0;0;8;0;1306;0;0;0;0;9;0;656;0;0;0;0
17.12.20;19:45:00;1;327;10313;0;2;0;1356;0;0;0;0;3;0;765;0;0;0;0;4;0;1058;0;0;0;0;5;0;0;0;0;0;0;0;0;6;0;1345;2;0;0;0;0;0;7;0;1291;0;0;0;0;8;0;1306;0;0;0;0;9;0;656;0;0;0;0
17.12.20;19:40:00;1;287;10285;0;2;0;1356;0;0;0;0;3;0;765;0;0;0;0;4;0;1058;0;0;0;0;5;0;0;0;0;0;0;0;0;6;0;1345;2;0;0;0;0;0;7;0;1291;0;0;0;0;8;0;1306;0;0;0;0;9;0;656;0;0;0;0
17.12.20;19:35:00;1;278;10261;0;2;0;1356;0;0;0;0;3;0;765;0;0;0;0;4;0;1058;0;0;0;0;5;0;0;0;0;0;0;0;0;6;0;1345;2;0;0;0;0;0;7;0;1291;0;0;0;0;8;0;1306;0;0;0;0;9;0;656;0;0;0;0
17.12.20;19:30:00;1;311;10238;0;2;0;1356;0;0;0;0;3;0;765;0;0;0;0;4;0;1058;0;0;0;0;5;0;0;0;0;0;0;0;0;6;0;1345;2;0;0;0;0;0;7;0;1291;0;0;0;0;8;0;1306;0;0;0;0;9;0;656;0;0;0;0
17.12.20;19:25:00;1;397;10212;0;2;0;1356;0;0;0;0;3;0;765;0;0;0;0;4;0;1058;0;0;0;0;5;0;0;0;0;0;0;0;0;6;0;1345;2;0;0;0;0;0;7;0;1291;0;0;0;0;8;0;1306;0;0;0;0;9;0;656;0;0;0;0
17.12.20;19:20:00;1;320;10181;0;2;0;1356;0;0;0;0;3;0;765;0;0;0;0;4;0;1058;0;0;0;0;5;0;0;0;0;0;0;0;0;6;0;1345;2;0;0;0;0;0;7;0;1291;0;0;0;0;8;0;1306;0;0;0;0;9;0;656;0;0;0;0
17.12.20;19:15:00;1;341;10155;0;2;0;1356;0;0;0;0;3;0;765;0;0;0;0;4;0;1058;0;0;0;0;5;0;0;0;0;0;0;0;0;6;0;1345;2;0;0;0;0;0;7;0;1291;0;0;0;0;8;0;1306;0;0;0;0;9;0;656;0;0;0;0
17.12.20;19:10:00;1;278;10128;0;2;0;1356;0;0;0;0;3;0;765;0;0;0;0;4;0;1058;0;0;0;0;5;0;0;0;0;0;0;0;0;6;0;1345;2;0;0;0;0;0;7;0;1291;0;0;0;0;8;0;1306;0;0;0;0;9;0;656;0;0;0;0
17.12.20;19:05:00;1;280;10105;0;2;0;1356;0;0;0;0;3;0;765;0;0;0;0;4;0;1058;0;0;0;0;5;0;0;0;0;0;0;0;0;6;0;1345;2;0;0;0;0;0;7;0;1291;0;0;0;0;8;0;1306;0;0;0;0;9;0;656;0;0;0;0
17.12.20;19:00:00;1;342;10082;0;2;0;1356;0;0;0;0;3;0;765;0;0;0;0;4;0;1058;0;0;0;0;5;0;0;0;0;0;0;0;0;6;0;1345;2;0;0;0;0;0;7;0;1291;0;0;0;0;8;0;1306;0;0;0;0;9;0;656;0;0;0;0
17.12.20;18:55:00;1;337;10055;0;2;0;1356;0;0;0;0;3;0;765;0;0;0;0;4;0;1058;0;0;0;0;5;0;0;0;0;0;0;0;0;6;0;1345;2;0;0;0;0;0;7;0;1291;0;0;0;0;8;0;1306;0;0;0;0;9;0;656;0;0;0;0
17.12.20;18:50:00;1;408;10026;0;2;0;1356;0;0;0;0;3;0;765;0;0;0;0;4;0;1058;0;0;0;0;5;0;0;0;0;0;0;0;0;6;0;1345;2;0;0;0;0;0;7;0;1291;0;0;0;0;8;0;1306;0;0;0;0;9;0;656;0;0;0;0
17.12.20;18:45:00;1;469;9989;0;2;0;1356;0;0;0;0;3;0;765;0;0;0;0;4;0;1058;0;0;0;0;5;0;0;0;0;0;0;0;0;6;0;1345;2;0;0;0;0;0;7;0;1291;0;0;0;0;8;0;1306;0;0;0;0;9;0;656;0;0;0;0
17.12.20;18:40:00;1;608;9948;0;2;0;1356;0;0;0;0;3;0;765;0;0;0;0;4;0;1058;0;0;0;0;5;0;0;0;0;0;0;0;0;6;0;1345;2;0;0;0;0;0;7;0;1291;0;0;0;0;8;0;1306;0;0;0;0;9;0;656;0;0;0;0
17.12.20;18:35:00;1;663;9898;0;2;0;1356;0;0;0;0;3;0;765;0;0;0;0;4;0;1058;0;0;0;0;5;0;0;0;0;0;0;0;0;6;0;1345;2;0;0;0;0;0;7;0;1291;0;0;0;0;8;0;1306;0;0;0;0;9;0;656;0;0;0;0
17.12.20;18:30:00;1;392;9815;0;2;0;1356;0;0;0;0;3;0;765;0;0;0;0;4;0;1058;0;0;0;0;5;0;0;0;0;0;0;0;0;6;0;1345;2;0;0;0;0;0;7;0;1291;0;0;0;0;8;0;1306;0;0;0;0;9;0;656;0;0;0;0
17.12.20;18:25:00;1;426;9783;0;2;0;1356;0;0;0;0;3;0;765;0;0;0;0;4;0;1058;0;0;0;0;5;0;0;0;0;0;0;0;0;6;0;1345;2;0;0;0;0;0;7;0;1291;0;0;0;0;8;0;1306;0;0;0;0;9;0;656;0;0;0;0
17.12.20;18:20:00;1;319;9746;0;2;0;1356;0;0;0;0;3;0;765;0;0;0;0;4;0;1058;0;0;0;0;5;0;0;0;0;0;0;0;0;6;0;1345;2;0;0;0;0;0;7;0;1291;0;0;0;0;8;0;1306;0;0;0;0;9;0;656;0;0;0;0
17.12.20;18:15:00;1;361;9719;0;2;0;1356;0;0;0;0;3;0;765;0;0;0;0;4;0;1058;0;0;0;0;5;0;0;0;0;0;0;0;0;6;0;1345;2;0;0;0;0;0;7;0;1291;0;0;0;0;8;0;1306;0;0;0;0;9;0;656;0;0;0;0
17.12.20;18:10:00;1;408;9689;0;2;0;1356;0;0;0;0;3;0;765;0;0;0;0;4;0;1058;0;0;0;0;5;0;0;0;0;0;0;0;0;6;0;1345;2;0;0;0;0;0;7;0;1291;0;0;0;0;8;0;1306;0;0;0;0;9;0;656;0;0;0;0
17.12.20;18:05:00;1;502;9655;0;2;0;1356;0;0;0;0;3;0;765;0;0;0;0;4;0;1058;0;0;0;0;5;0;0;0;0;0;0;0;0;6;0;1345;2;0;0;0;0;0;7;0;1291;0;0;0;0;8;0;1306;0;0;0;0;9;0;656;0;0;0;0
17.12.20;18:00:00;1;507;9613;0;2;0;1356;0;0;0;0;3;0;765;0;0;0;0;4;0;1058;0;0;0;0;5;0;0;0;0;0;0;0;0;6;0;1345;2;0;0;0;0;0;7;0;1291;0;0;0;0;8;0;1306;0;0;0;0;9;0;656;0;0;0;0
17.12.20;17:55:00;1;545;9571;0;2;0;1356;0;0;0;0;3;0;765;0;0;0;0;4;0;1058;0;0;0;0;5;0;0;0;0;0;0;0;0;6;0;1345;2;0;0;0;0;0;7;0;1291;0;0;0;0;8;0;1306;0;0;0;0;9;0;656;0;0;0;0
17.12.20;17:50:00;1;500;9525;0;2;0;1356;0;0;0;0;3;0;765;0;0;0;0;4;0;1058;0;0;0;0;5;0;0;0;0;0;0;0;0;6;0;1345;2;0;0;0;0;0;7;0;1291;0;0;0;0;8;0;1306;0;0;0;0;9;0;656;0;0;0;0
17.12.20;17:45:00;1;532;9484;0;2;0;1356;0;0;0;0;3;0;765;0;0;0;0;4;0;1058;0;0;0;0;5;0;0;0;0;0;0;0;0;6;0;1345;2;0;0;0;0;0;7;0;1291;0;0;0;0;8;0;1306;0;0;0;0;9;0;656;0;0;0;0
17.12.20;17:40:00;1;540;9440;0;2;0;1356;0;0;0;0;3;0;765;0;0;0;0;4;0;1058;0;0;0;0;5;0;0;0;0;0;0;0;0;6;0;1345;2;0;0;0;0;0;7;0;1291;0;0;0;0;8;0;1306;0;0;0;0;9;0;656;0;0;0;0
17.12.20;17:35:00;1;584;9395;0;2;0;1356;0;0;0;0;3;0;765;0;0;0;0;4;0;1058;0;0;0;0;5;0;0;0;0;0;0;0;0;6;0;1345;2;0;0;0;0;0;7;0;1291;0;0;0;0;8;0;1306;0;0;0;0;9;0;656;0;0;0;0
17.12.20;17:30:00;1;596;9347;0;2;0;1356;0;0;0;0;3;0;765;0;0;0;0;4;0;1058;0;0;0;0;5;0;0;0;0;0;0;0;0;6;0;1345;2;0;0;0;0;0;7;0;1291;0;0;0;0;8;0;1306;0;0;0;0;9;0;656;0;0;0;0
17.12.20;17:25:00;1;546;9297;0;2;0;1356;0;0;0;0;3;0;765;0;0;0;0;4;0;1058;0;0;0;0;5;0;0;0;0;0;0;0;0;6;0;1345;2;0;0;0;0;0;7;0;1291;0;0;0;0;8;0;1306;0;0;0;0;9;0;656;0;0;0;0
17.12.20;17:20:00;1;536;9251;0;2;0;1356;0;0;0;0;3;0;765;0;0;0;0;4;0;1058;0;0;0;0;5;0;0;0;0;0;0;0;0;6;0;1345;2;0;0;0;0;0;7;0;1291;0;0;0;0;8;0;1306;0;0;0;0;9;0;656;0;0;0;0
17.12.20;17:15:00;1;562;9206;0;2;0;1356;0;0;0;0;3;0;765;0;0;0;0;4;0;1058;0;0;0;0;5;0;0;0;0;0;0;0;0;6;0;1345;2;0;0;0;0;0;7;0;1291;0;0;0;0;8;0;1306;0;0;0;0;9;0;656;0;0;0;0
17.12.20;17:10:00;1;562;9160;0;2;0;1356;0;0;0;0;3;0;765;0;0;0;0;4;0;1058;0;0;0;0;5;0;0;0;0;0;0;0;0;6;0;1345;2;0;0;0;0;0;7;0;1291;0;0;0;0;8;0;1306;0;0;0;0;9;0;656;0;0;0;0
17.12.20;17:05:00;1;569;9113;0;2;0;1356;0;0;0;0;3;0;765;0;0;0;0;4;0;1058;0;0;0;0;5;0;0;0;0;0;0;0;0;6;0;1345;2;0;0;0;0;0;7;0;1291;0;0;0;0;8;0;1306;0;0;0;0;9;0;656;0;0;0;0
17.12.20;17:00:00;1;506;9069;0;2;0;1356;0;0;0;0;3;0;765;0;0;0;0;4;0;1058;0;0;0;0;5;0;0;0;0;0;0;0;0;6;0;1345;2;0;0;0;0;0;7;0;1291;0;0;0;0;8;0;1306;0;0;0;0;9;0;656;0;0;0;0
17.12.20;16:55:00;1;545;9027;0;2;0;1356;0;0;0;0;3;0;765;0;0;0;0;4;0;1058;0;0;0;0;5;0;0;0;0;0;0;0;0;6;0;1345;2;0;0;0;0;0;7;0;1291;0;0;0;0;8;0;1306;0;0;0;0;9;0;656;0;0;0;0
17.12.20;16:50:00;1;585;8981;0;2;0;1356;0;0;0;0;3;0;765;0;0;0;0;4;0;1058;0;0;0;0;5;0;0;0;0;0;0;0;0;6;0;1345;2;0;0;0;0;0;7;0;1291;0;0;0;0;8;0;1306;0;0;0;0;9;0;656;0;0;0;0
17.12.20;16:45:00;1;1081;8933;0;2;0;1356;0;0;0;0;3;0;765;0;0;0;0;4;0;1058;0;0;0;0;5;0;0;0;0;0;0;0;0;6;0;1345;2;0;0;0;0;0;7;0;1291;0;0;0;0;8;0;1306;0;0;0;0;9;0;656;0;0;0;0
17.12.20;16:40:00;1;584;8871;0;2;0;1356;0;0;0;0;3;0;765;0;0;0;0;4;0;1058;0;0;0;0;5;0;0;0;0;0;0;0;0;6;0;1345;2;0;0;0;0;0;7;0;1291;0;0;0;0;8;0;1306;0;0;0;0;9;0;656;0;0;0;0
17.12.20;16:35:00;1;547;8822;0;2;0;1356;0;0;0;0;3;0;765;0;0;0;0;4;0;1058;0;0;0;0;5;0;0;0;0;0;0;0;0;6;0;1345;2;0;0;0;0;0;7;0;1291;0;0;0;0;8;0;1306;0;0;0;0;9;0;656;0;0;0;0
17.12.20;16:30:00;1;531;8776;0;2;0;1356;0;0;185;6;3;0;765;6;0;285;12;4;0;1058;0;0;0;0;5;0;0;0;0;0;0;0;0;6;0;1345;1;0;0;0;0;0;7;0;1291;0;0;0;0;8;0;1306;0;0;0;0;9;0;656;0;0;0;0
17.12.20;16:25:00;1;557;8732;0;2;0;1356;6;0;287;9;3;0;765;6;0;316;12;4;0;1058;0;0;64;7;5;0;0;0;0;0;0;0;0;6;0;1345;2;0;0;0;0;0;7;0;1291;0;0;0;0;8;0;1306;0;0;0;0;9;0;656;0;0;0;0
17.12.20;16:20:00;1;526;8684;0;2;0;1356;6;0;315;9;3;0;765;6;0;378;12;4;0;1058;1;0;100;9;5;0;0;0;0;0;0;0;0;6;0;1345;2;1;0;25;31;6;7;0;1291;0;0;0;0;8;0;1306;0;0;0;0;9;0;656;0;0;0;0
17.12.20;16:15:00;1;519;8640;0;2;0;1356;6;0;338;9;3;0;765;6;0;402;12;4;0;1058;1;0;123;9;5;0;0;0;0;0;0;0;0;6;0;1345;23;5;3;180;425;20;7;0;1291;0;0;127;6;8;0;1306;0;0;171;8;9;0;656;6;0;270;9
17.12.20;16:10:00;1;534;8597;0;2;0;1356;6;0;359;9;3;0;765;6;1;423;12;4;0;1058;1;0;151;9;5;0;0;0;0;0;0;0;0;6;0;1345;23;3;3;308;420;21;7;0;1291;6;0;295;13;8;0;1306;6;0;302;13;9;0;656;6;0;314;9
17.12.20;16:05:00;1;582;8552;0;2;0;1356;6;0;375;9;3;0;765;6;3;433;13;4;0;1058;1;0;175;9;5;0;0;0;0;0;0;0;0;6;0;1345;23;3;6;498;288;21;7;0;1291;6;0;338;13;8;0;1306;6;0;345;13;9;0;656;6;0;363;9
17.12.20;16:00:00;1;579;8504;0;2;0;1356;6;0;392;9;3;0;765;6;1;458;13;4;0;1058;1;0;206;10;5;0;0;0;0;0;0;0;0;6;0;1345;23;6;3;203;569;21;7;0;1291;6;0;400;13;8;0;1306;6;0;395;13;9;0;656;6;0;423;9
17.12.20;15:55:00;1;622;8455;0;2;0;1356;6;0;402;9;3;3;765;3;6;466;13;4;0;1058;1;0;224;10;5;0;0;0;0;0;0;0;0;6;0;1345;8;3;5;528;580;22;7;0;1291;6;0;408;13;8;0;1306;6;0;422;13;9;0;656;6;0;459;9
17.12.20;15:50:00;1;663;8402;0;2;0;1356;6;0;407;10;3;0;764;6;3;491;13;4;0;1058;3;0;214;10;5;0;0;0;0;0;0;0;0;6;0;1345;8;3;4;415;586;22;7;0;1291;6;1;441;14;8;1;1306;6;1;446;13;9;0;656;6;0;508;9
17.12.20;15:45:00;1;654;8347;0;2;4;1356;6;11;394;10;3;4;764;6;9;482;13;4;0;1058;3;0;212;10;5;0;0;0;0;0;0;0;0;6;17;1345;1;7;12;556;533;23;7;0;1291;6;1;438;14;8;0;1305;6;1;453;13;9;1;656;4;1;494;9
17.12.20;15:40:00;1;623;8292;0;2;3;1356;6;5;409;10;3;2;764;6;5;513;13;4;0;1058;3;0;199;10;5;0;0;0;0;0;0;0;0;6;59;1343;4;20;26;445;414;23;7;2;1291;3;5;439;14;8;3;1305;4;6;442;13;9;3;656;3;5;484;9
17.12.20;15:35:00;1;579;8239;0;2;5;1356;6;13;399;10;3;1;764;6;10;488;13;4;0;1058;3;0;199;10;5;0;0;0;0;0;0;0;0;6;15;1338;4;15;26;588;590;23;7;3;1291;6;8;445;14;8;2;1305;6;4;471;13;9;2;656;6;2;518;9
17.12.20;15:30:00;1;597;8191;0;2;0;1356;6;0;429;10;3;0;764;6;0;548;13;4;8;1058;3;8;199;10;5;0;0;0;0;0;0;0;0;6;54;1337;4;19;18;313;295;24;7;3;1291;6;7;477;14;8;0;1305;6;6;479;14;9;1;655;6;6;502;9
17.12.20;15:25:00;1;617;8141;0;2;12;1356;3;19;406;10;3;2;764;3;6;523;13;4;11;1058;3;11;199;11;5;0;0;0;0;0;0;0;0;6;65;1332;4;39;37;313;295;24;7;4;1291;6;7;472;14;8;3;1305;6;8;489;14;9;2;655;6;5;538;9
17.12.20;15:20:00;1;544;8088;0;2;16;1354;6;24;407;11;3;3;764;6;8;531;13;4;14;1057;3;14;199;11;5;0;0;0;0;0;0;0;0;6;69;1327;4;28;26;313;295;24;7;3;1290;6;7;486;15;8;3;1305;6;7;487;14;9;0;655;6;4;537;9
17.12.20;15:15:00;1;524;8043;0;2;59;1353;4;83;359;11;3;5;763;6;9;525;13;4;20;1056;3;21;198;11;5;0;0;0;0;0;0;0;0;6;81;1321;4;39;35;312;294;24;7;42;1290;6;61;398;15;8;40;1304;6;62;405;14;9;2;655;4;5;546;10
17.12.20;15:10:00;1;534;7999;0;2;78;1348;4;105;374;11;3;5;763;6;9;549;13;4;41;1054;3;43;197;11;5;0;0;0;0;0;0;0;0;6;93;1314;4;46;40;312;295;24;7;58;1287;4;90;436;15;8;55;1301;4;92;436;14;9;14;655;3;22;515;10
17.12.20;15:05:00;1;566;7954;0;2;92;1342;4;119;374;11;3;9;762;6;13;550;13;4;54;1051;3;56;198;11;5;0;0;0;0;0;0;0;0;6;110;1306;4;68;57;313;295;24;7;89;1282;4;123;440;15;8;86;1296;4;116;469;14;9;15;654;6;23;538;10
17.12.20;15:00:00;1;593;7907;0;2;80;1334;4;106;373;11;3;6;762;6;10;549;14;4;47;1046;3;48;197;11;5;0;0;0;0;0;0;0;0;6;100;1297;4;54;47;313;295;24;7;50;1274;4;94;469;15;8;61;1289;4;95;473;14;9;10;652;6;16;539;10
17.12.20;14:55:00;1;609;7858;0;2;74;1327;4;99;378;11;3;6;761;3;11;544;14;4;41;1042;3;43;198;11;5;0;0;0;0;0;0;0;0;6;95;1289;4;54;48;313;295;24;7;44;1270;4;90;446;15;8;59;1284;4;90;409;14;9;4;651;6;8;554;10
17.12.20;14:50:00;1;572;7807;0;2;96;1321;4;120;371;11;3;20;761;6;31;539;14;4;56;1039;3;58;197;11;5;0;0;0;0;0;0;0;0;6;110;1281;4;55;48;313;295;24;7;82;1266;4;109;418;15;8;74;1279;4;111;439;14;9;6;651;6;10;560;10
17.12.20;14:45:00;1;544;7758;0;2;117;1313;4;143;369;11;3;65;759;4;100;456;14;4;67;1034;3;70;198;11;5;0;0;0;0;0;0;0;0;6;127;1272;4;58;53;313;295;24;7;89;1260;4;125;436;15;8;94;1273;4;121;409;14;9;9;650;6;12;554;10
17.12.20;14:40:00;1;540;7713;0;2;126;1303;4;152;381;11;3;70;754;4;108;461;14;4;85;1029;3;89;208;11;5;0;0;0;0;0;0;0;0;6;141;1261;4;81;75;314;294;24;7;98;1252;4;128;433;15;8;101;1265;4;126;392;14;9;15;650;3;21;547;10
17.12.20;14:35:00;1;547;7668;0;2;151;1293;4;179;391;11;3;87;748;4;124;486;14;4;116;1021;5;120;226;11;5;0;0;0;0;0;0;0;0;6;164;1249;4;67;63;313;295;24;7;110;1244;4;147;418;15;8;116;1257;4;147;401;14;9;22;648;6;29;545;10
17.12.20;14:30:00;1;598;7622;0;2;155;1280;4;184;381;11;3;92;741;4;127;480;14;4;119;1012;5;124;227;11;5;0;0;0;0;0;0;0;0;6;167;1235;4;97;88;313;295;24;7;133;1235;4;171;453;15;8;141;1247;4;174;445;14;9;74;646;4;98;460;11
17.12.20;14:25:00;1;582;7573;0;2;170;1267;4;199;381;11;3;97;733;4;135;507;14;4;129;1002;5;135;229;11;5;0;0;0;0;0;0;0;0;6;181;1221;4;101;93;313;295;24;7;174;1224;4;207;453;15;8;175;1235;4;209;459;14;9;94;640;4;116;473;11
17.12.20;14:20:00;1;548;7523;0;2;149;1253;4;177;381;11;3;83;725;4;118;500;14;4;113;991;5;118;229;11;5;0;0;0;0;0;0;0;0;6;155;1206;4;63;60;312;294;24;7;168;1209;4;199;456;15;8;166;1221;4;204;461;14;9;91;632;4;115;484;11
17.12.20;14:15:00;1;588;7478;0;2;148;1241;4;174;377;11;3;84;718;4;120;470;14;4;104;982;5;108;225;11;5;0;0;0;0;0;0;0;0;6;147;1193;4;72;67;312;295;24;7;162;1195;4;184;431;15;8;148;1207;4;181;477;14;9;83;625;4;107;494;11
17.12.20;14:10:00;1;626;7428;0;2;162;1228;4;189;383;12;3;95;711;4;133;488;14;4;120;973;5;125;228;11;5;0;0;0;0;0;0;0;0;6;159;1180;4;82;77;313;294;24;7;158;1181;4;180;419;15;8;142;1195;4;178;462;14;9;79;618;4;104;501;11
17.12.20;14:05:00;1;643;7376;0;2;230;1215;4;262;391;12;3;142;703;4;180;507;14;4;186;963;5;193;230;11;5;0;0;0;0;0;0;0;0;6;223;1167;4;115;103;313;294;24;7;188;1168;4;219;443;15;8;190;1183;4;224;453;14;9;100;611;4;127;509;11
17.12.20;14:00:00;1;592;7324;0;2;230;1196;4;259;390;12;3;140;691;4;178;514;14;4;194;947;5;202;233;11;5;0;0;0;0;0;0;0;0;6;224;1148;4;126;116;313;295;24;7;239;1152;4;271;451;15;8;234;1167;4;274;464;14;9;128;602;4;156;521;11
17.12.20;13:55:00;1;586;7275;0;2;211;1176;4;240;385;12;3;125;680;4;163;516;14;4;169;931;5;176;228;11;5;0;0;0;0;0;0;0;0;6;210;1129;4;114;102;312;295;24;7;240;1133;4;278;478;15;8;258;1147;4;288;475;14;9;135;592;4;162;519;11
17.12.20;13:50:00;1;531;7225;0;2;178;1159;4;223;383;12;3;111;669;4;149;519;14;4;151;917;5;157;232;11;5;0;0;0;0;0;0;0;0;6;190;1112;4;81;76;313;295;24;7;185;1113;4;223;463;15;8;196;1126;4;229;444;14;9;108;581;4;133;490;11
17.12.20;13:45:00;1;532;7181;0;2;220;1145;4;249;396;12;3;131;660;4;167;519;14;4;171;904;5;178;228;11;5;0;0;0;0;0;0;0;0;6;204;1096;4;112;98;312;295;24;7;203;1097;4;242;440;15;8;216;1109;4;245;445;14;9;114;571;4;138;501;11
17.12.20;13:40:00;1;738;7136;0;2;235;1126;4;269;395;12;3;147;649;4;184;499;14;4;188;890;5;196;231;11;5;0;0;0;0;0;0;0;0;6;214;1079;4;125;112;313;295;24;7;268;1080;4;310;465;15;8;276;1091;4;316;471;14;9;146;562;4;175;524;11
17.12.20;13:35:00;1;550;7061;0;2;245;1107;4;276;387;12;3;151;637;4;188;510;14;4;195;874;5;204;230;10;5;0;0;0;0;0;0;0;0;6;231;1061;4;134;123;313;294;24;7;267;1057;4;307;474;15;8;277;1068;4;316;476;14;9;151;550;4;179;525;11
17.12.20;13:30:00;1;600;7015;0;2;236;1086;4;266;393;12;3;139;624;4;177;520;14;4;190;858;5;198;233;10;5;0;0;0;0;0;0;0;0;6;226;1042;4;149;136;312;295;24;7;213;1035;4;252;452;15;8;221;1045;4;252;443;14;9;118;537;4;145;508;11
17.12.20;13:25:00;1;666;6965;0;2;239;1067;4;271;390;12;3;145;613;4;182;502;14;4;194;842;5;202;234;10;5;0;0;0;0;0;0;0;0;6;227;1023;4;122;109;312;295;24;7;244;1017;4;270;448;15;8;237;1027;4;275;445;14;9;126;527;4;152;526;11
17.12.20;13:20:00;1;368;6911;0;2;279;1047;4;310;389;12;3;168;601;4;209;512;14;4;228;826;5;238;236;10;5;0;0;0;0;0;0;0;0;6;254;1004;4;131;124;313;295;24;7;297;997;4;336;471;15;8;303;1007;4;342;468;14;9;160;517;4;188;520;11
17.12.20;13:15:00;1;400;6880;0;2;309;1024;4;344;398;12;3;192;586;4;231;512;14;4;260;807;5;271;240;10;5;0;0;0;0;0;0;0;0;6;285;982;4;145;133;313;295;24;7;344;972;4;379;471;15;8;347;982;4;384;475;14;9;185;503;4;215;513;11